Vorticity
5 5 4 4 5 6 6 7 7 7 7 8 8 9 7 6 6 4 5 6 7 7 7 8 6 6 6 6 6 5 4 4 5 5 4 4 4 4 5 5 5 5 6 7 8 8 9 10 9 9 8 7 7 7 8 8 8 8 9 8 7 7 8 8 8 8 8 8 8 9 8 9 9 9 13 11 17 15 7 11 10 10 6 -4 -0 5 2 4 1 0 10 4 8 14 5 2 3
5 5 4 5 5 6 6 7 7 7 8 9 10 13 10 8 7 7 7 7 8 8 9 9 7 6 6 8 7 6 5 4 4 5 5 5 4 4 5 5 5 6 8 9 10 10 9 9 8 7 7 8 8 8 9 9 8 7 7 7 7 7 8 8 8 8 7 9 8 8 8 9 9 10 12 12 19 13 -2 -0 7 12 10 -1 -2 1 -5 -1 1 -0 9 6 10 13 5 5 9
5 5 5 5 5 5 6 6 7 7 8 8 8 11 9 7 7 6 6 7 8 8 9 9 8 7 7 8 7 7 6 5 5 5 5 5 5 4 5 6 7 8 8 9 9 10 9 8 8 8 8 9 8 9 8 8 8 8 8 7 8 8 8 8 9 9 7 8 8 7 7 8 8 9 13 9 8 13 9 -0 -1 7 13 6 2 6 1 3 11 13 13 9 13 17 12 11 16
7 6 6 6 6 6 6 6 7 7 7 8 6 7 6 6 6 7 8 8 9 9 9 9 8 8 7 7 7 7 6 6 6 5 5 5 6 6 7 7 8 10 9 9 9 9 9 9 9 9 9 8 8 8 8 8 9 9 9 9 9 9 9 9 9 9 9 8 7 8 8 7 8 8 12 9 1 10 20 10 -3 -2 19 22 0 0 1 -4 13 26 18 11 14 13 9 6 7
7 6 6 6 7 8 8 8 7 7 7 7 6 5 5 6 7 8 9 8 8 9 9 8 8 8 7 7 7 7 7 6 6 5 6 6 7 7 8 9 10 11 11 11 10 9 9 9 9 9 9 8 8 8 9 9 9 8 9 9 8 9 9 9 9 9 9 9 8 8 9 8 9 8 7 9 6 12 19 17 5 -6 6 4 -18 -8 5 2 12 12 -0 -0 4 3 4 6 3
7 7 7 7 8 9 9 8 6 7 8 7 6 6 6 6 8 7 8 8 8 9 9 9 9 8 8 8 8 7 6 5 6 6 6 7 8 9 10 10 10 11 11 11 10 9 9 9 9 10 10 9 8 8 9 8 8 8 7 7 7 7 7 7 7 8 9 9 9 8 8 8 8 8 7 8 8 8 10 12 13 7 2 -5 -12 2 15 17 14 -1 -11 -9 -8 -7 -8 -3 -2
7 7 8 9 10 11 10 8 6 8 10 10 7 6 7 6 7 7 8 9 10 10 9 9 9 9 8 7 6 5 6 5 6 6 7 8 9 10 10 10 10 10 10 10 9 9 9 9 9 9 9 7 7 7 7 7 7 7 6 6 6 6 5 5 5 5 6 7 9 9 8 9 8 8 9 8 6 5 7 8 12 15 14 10 5 2 -2 -6 -10 -11 -8 -6 -7 -10 -18 -16 -16
8 8 8 9 9 11 10 9 7 9 9 9 8 6 8 9 9 9 9 10 10 9 8 8 7 6 6 5 5 5 5 6 6 7 8 9 10 10 10 11 11 10 9 9 9 9 10 10 9 8 6 5 5 5 5 5 5 6 6 6 6 6 6 6 5 5 5 6 6 7 8 8 8 9 9 8 7 7 9 9 8 9 11 11 11 10 6 -0 -0 3 2 3 6 1 -4 -3 -8
7 7 7 8 9 10 10 9 9 11 7 6 9 8 8 9 9 9 9 8 7 6 5 5 4 4 4 5 5 5 5 5 7 8 9 10 11 10 10 11 10 9 9 9 10 10 10 9 9 7 5 5 5 5 4 4 3 4 5 6 6 6 7 6 7 6 6 6 5 6 7 7 7 8 8 8 8 9 9 8 8 8 8 7 8 10 9 9 13 16 14 13 11 4 3 7 9
4 4 4 6 6 7 8 9 10 11 10 9 10 8 6 7 7 7 7 6 6 5 5 4 4 4 5 5 6 6 7 7 9 9 10 11 11 10 10 10 9 9 10 10 10 9 9 8 7 5 4 5 5 5 4 4 4 4 4 4 5 5 6 7 7 7 7 7 6 5 5 5 6 6 7 7 7 8 8 8 8 8 9 8 8 8 9 9 8 11 13 13 12 12 12 12 14
5 5 5 5 4 4 4 7 11 11 10 8 8 7 6 4 4 5 5 5 5 5 5 5 5 5 6 6 8 8 8 9 9 10 10 10 10 10 9 9 9 10 10 9 9 8 7 5 4 4 4 4 4 5 4 5 5 5 5 4 6 6 6 7 7 7 7 7 6 5 5 4 4 5 5 6 6 6 6 6 6 7 8 8 8 8 8 9 8 9 9 9 11 11 11 12 12
7 7 8 8 7 6 3 3 8 7 6 6 5 5 5 3 4 4 4 4 5 6 5 5 5 6 7 8 10 10 9 8 9 10 10 9 9 10 10 10 10 10 9 8 7 6 4 3 2 2 3 3 4 4 4 4 5 5 5 5 4 5 5 5 6 6 6 7 7 6 6 5 4 4 4 4 5 6 6 6 6 6 6 7 7 8 8 8 8 8 8 8 7 7 7 8 8
5 5 5 6 7 8 6 4 4 5 5 6 4 4 4 4 6 6 6 5 5 5 4 5 5 6 7 9 11 10 9 8 10 11 11 11 10 11 10 10 10 9 8 7 6 4 3 2 2 2 2 3 3 4 4 4 5 4 4 5 5 4 3 4 4 5 5 5 6 7 6 7 6 5 4 4 4 5 5 6 7 7 7 7 7 7 7 8 7 7 8 7 6 8 8 7 7
5 5 4 3 3 6 8 6 5 5 4 5 4 3 4 6 8 7 6 4 3 4 5 6 6 6 7 9 10 9 10 10 10 10 12 12 10 11 11 10 8 7 7 5 3 2 2 2 2 3 2 3 3 3 3 3 3 3 3 4 4 4 4 3 4 4 5 5 4 5 6 6 7 7 6 5 4 4 5 5 6 6 7 7 8 8 8 9 9 9 9 8 7 8 9 8 9
5 5 6 3 2 6 8 7 6 6 4 5 6 4 5 6 8 6 5 4 4 5 6 6 6 7 8 9 9 10 11 11 10 10 10 10 10 10 10 9 7 6 6 3 2 2 2 2 2 2 2 2 3 3 2 2 1 2 2 2 3 3 4 3 3 3 4 5 4 4 5 5 5 7 7 7 6 5 5 5 6 6 6 6 7 7 7 8 8 9 9 9 8 8 9 9 9
8 6 7 5 2 6 8 7 5 5 5 6 7 7 6 7 8 7 5 5 6 6 6 7 9 10 10 10 10 10 10 10 11 10 10 10 10 9 9 8 7 6 3 2 2 2 2 2 2 2 2 2 2 2 1 1 1 1 1 1 2 2 3 3 3 4 4 4 5 5 5 5 5 5 6 7 7 6 5 5 5 5 5 6 6 7 7 7 7 8 8 8 9 9 8 8 8
7 7 8 7 6 8 6 6 6 6 6 7 7 6 5 6 7 7 7 7 8 6 8 10 9 10 10 10 9 9 9 10 10 11 11 11 10 9 7 7 5 4 1 1 1 2 3 2 2 2 1 2 2 2 1 1 0 1 1 2 2 2 1 2 2 3 4 4 4 4 4 5 5 5 5 7 8 8 7 6 5 5 5 6 6 6 6 7 7 6 6 7 7 7 7 7 7
6 6 5 6 6 6 4 5 7 7 7 7 6 6 5 5 7 6 8 11 9 7 10 11 8 9 8 7 8 9 9 10 10 10 10 9 8 7 5 5 3 2 1 0 1 3 4 2 2 1 1 2 2 2 1 1 1 1 2 2 2 1 1 2 3 3 3 4 3 4 3 4 4 4 5 6 7 8 8 8 7 6 6 6 6 7 7 7 7 7 7 6 6 7 8 8 7
8 7 7 7 6 3 5 5 5 6 7 6 5 6 5 5 6 6 8 10 9 10 13 9 7 10 9 9 11 12 11 9 9 8 8 7 6 6 5 4 3 2 2 2 3 4 4 3 2 1 2 2 2 2 1 1 1 2 3 2 2 1 1 2 3 3 3 3 3 4 4 4 4 4 4 4 5 6 8 9 9 8 6 6 6 7 7 7 6 7 7 7 7 7 8 9 9
7 9 11 10 8 6 7 5 4 5 6 6 4 5 5 5 6 7 8 6 6 12 13 10 11 13 12 11 11 11 11 10 9 8 7 7 5 5 4 3 3 2 3 4 4 5 4 3 2 2 2 2 2 2 2 2 2 3 3 2 2 1 2 2 2 3 3 3 3 3 3 4 4 4 4 4 4 5 7 8 8 8 7 7 7 7 7 7 6 6 6 6 6 6 7 8 8
8 10 10 7 7 7 7 7 8 7 7 8 7 6 5 5 7 8 7 4 7 12 11 11 13 13 12 12 10 10 10 9 8 7 6 6 5 4 4 3 3 3 4 6 6 5 5 4 4 3 2 2 3 4 3 3 3 3 2 1 2 2 3 3 4 3 3 3 3 4 3 3 3 3 3 3 3 4 5 5 6 8 8 8 7 7 7 7 7 6 6 7 6 6 6 6 7
10 11 9 6 6 6 7 7 7 7 8 10 9 9 8 7 9 8 6 5 8 12 12 11 9 8 10 11 12 10 9 7 6 6 6 5 5 4 5 5 4 5 6 7 6 6 5 4 4 3 4 4 4 4 3 3 3 2 1 1 2 3 3 3 4 4 3 3 4 4 4 4 4 3 3 3 3 4 4 4 6 8 8 8 7 7 7 7 7 7 7 7 7 7 7 7 7
10 9 8 7 7 8 7 5 5 6 7 9 9 9 8 9 9 7 8 6 5 10 12 9 7 7 7 9 12 12 9 6 4 4 5 5 5 5 5 6 7 8 8 8 7 5 5 5 5 4 5 5 4 3 3 3 2 2 2 2 3 3 3 3 3 3 3 4 4 4 4 4 4 4 4 4 4 4 4 4 5 7 8 7 7 6 7 7 6 6 7 6 6 7 8 8 8
9 7 7 7 8 8 6 5 5 5 5 7 7 6 6 8 7 5 8 9 7 9 9 7 8 9 7 7 9 11 10 8 7 5 5 5 5 6 6 8 8 7 7 7 5 5 6 5 4 5 5 4 4 3 3 3 2 2 2 2 3 2 2 2 2 2 3 3 3 3 3 3 3 3 3 4 4 3 3 4 5 7 8 7 8 7 6 6 6 7 6 6 6 7 7 8 8
9 8 8 8 8 8 6 6 7 6 5 3 4 5 5 6 6 5 6 8 5 3 5 9 11 9 8 6 5 8 9 9 8 7 7 5 4 5 6 6 5 6 7 6 5 7 7 5 5 5 5 3 3 3 3 3 2 2 3 3 3 2 3 2 2 3 2 2 3 3 4 3 2 3 4 4 4 4 4 5 6 7 7 8 9 7 7 6 6 6 6 7 6 7 7 7 8
9 8 8 8 8 8 7 8 8 6 4 3 4 5 5 3 5 5 4 5 2 -0 3 7 7 8 8 6 4 5 6 7 7 6 6 6 7 6 4 4 4 7 7 6 7 7 5 4 5 4 3 3 2 2 2 2 3 3 3 3 2 3 3 2 2 2 2 3 4 4 4 3 3 4 5 5 5 5 5 6 6 7 8 9 9 8 7 7 7 7 7 7 7 7 7 7 8
8 8 8 8 8 7 8 8 7 6 4 5 6 5 4 3 5 6 3 1 1 2 5 5 4 5 5 6 6 5 4 5 6 5 4 6 6 5 4 5 6 5 5 6 6 4 4 5 5 3 3 3 2 2 2 2 3 3 3 3 3 2 1 2 3 3 3 4 4 4 4 4 4 5 5 6 6 6 6 7 8 8 9 9 9 9 8 8 7 7 7 7 7 6 6 7 7
6 5 5 6 6 5 7 7 5 5 6 7 8 9 7 6 10 11 7 5 6 6 5 5 6 5 4 5 6 6 6 4 4 4 4 5 3 1 3 4 4 4 3 4 4 3 4 4 3 3 3 3 3 3 2 2 3 3 3 3 3 2 2 3 3 3 3 3 4 5 5 5 5 5 6 6 6 6 6 7 8 9 10 10 10 9 9 9 8 8 8 7 7 7 7 7 7
4 5 5 5 5 4 5 5 5 6 7 7 8 11 10 9 11 10 8 10 12 12 9 7 6 6 6 5 4 6 7 6 5 4 3 3 3 3 3 2 3 3 3 3 4 4 4 3 3 3 4 3 3 3 3 2 2 2 3 3 3 3 3 4 3 3 3 4 6 6 6 6 6 6 6 6 6 6 6 8 9 9 9 9 9 10 9 8 8 8 8 8 8 8 7 8 7
6 7 6 6 7 6 5 6 7 6 7 6 7 11 9 6 8 7 8 8 9 11 13 12 10 9 8 8 7 6 7 7 7 5 4 3 4 4 3 2 2 2 2 2 3 3 3 3 2 2 3 3 3 3 3 2 2 2 2 3 3 3 3 4 4 4 5 5 6 6 6 7 6 7 6 6 6 6 8 9 10 10 9 9 9 9 8 8 8 8 8 8 8 8 7 7 7
7 7 7 7 7 7 6 7 7 7 7 6 7 8 5 6 9 8 9 10 9 8 8 10 11 12 11 11 12 10 10 9 8 7 6 5 4 5 3 2 2 1 1 2 2 2 3 3 3 2 2 2 3 3 3 3 3 3 3 4 4 4 4 4 5 5 6 6 6 7 7 7 7 7 6 5 7 7 9 9 9 9 8 8 8 8 8 8 7 7 8 8 7 7 7 6 6
7 7 7 6 6 7 7 7 8 7 7 6 7 7 5 6 7 6 8 8 9 9 8 8 9 10 12 13 13 13 13 12 11 9 8 8 7 6 5 3 3 2 1 1 2 3 4 4 3 3 3 4 4 3 4 3 4 4 4 4 4 5 5 6 6 6 6 7 8 8 8 8 7 6 6 6 7 8 9 9 7 7 7 7 8 8 8 7 7 8 8 7 7 7 6 5 6
6 6 6 6 6 6 7 7 7 7 6 6 6 6 8 8 5 5 6 5 7 7 8 9 9 9 9 11 12 12 13 13 13 12 10 10 10 9 7 6 5 4 3 2 2 3 3 4 4 4 4 4 4 4 4 4 5 5 5 6 6 7 7 7 7 7 8 8 8 8 7 7 6 6 7 7 8 8 8 7 6 6 7 7 7 8 8 8 7 7 6 6 6 6 6 6 6
7 7 6 7 7 7 8 8 7 7 6 7 7 7 8 10 9 10 9 8 8 7 7 8 7 8 8 9 12 14 15 14 14 16 16 13 11 12 12 11 11 10 8 5 3 4 4 5 6 6 6 5 6 6 6 6 6 6 7 8 8 8 8 8 8 8 8 7 7 7 7 7 7 7 8 8 8 7 7 7 7 6 7 7 7 7 7 7 7 7 7 7 6 6 7 6 6
6 6 6 8 8 8 9 8 8 9 8 8 8 7 6 8 11 13 13 12 13 11 10 11 9 8 7 8 10 12 13 14 16 17 18 15 13 13 15 16 17 17 16 13 10 9 8 9 9 9 9 9 9 8 8 9 9 10 10 9 9 9 8 7 7 7 7 7 8 8 8 7 8 8 9 9 8 7 7 6 7 7 7 7 6 6 7 7 7 6 6 6 7 7 7 7 7
6 7 7 8 8 10 10 9 10 9 8 7 5 5 6 8 10 10 11 11 12 11 10 12 11 8 8 7 7 8 10 12 14 13 13 16 17 16 15 15 15 16 17 18 17 15 13 11 11 12 13 12 11 11 11 11 10 10 10 9 9 9 8 8 7 8 8 9 9 8 8 9 9 9 8 8 7 7 7 6 7 6 6 7 8 7 7 7 6 6 8 8 8 7 6 7 8
8 8 9 8 8 9 10 10 10 9 8 8 7 9 9 8 10 11 12 13 12 11 11 11 9 8 8 7 6 6 7 9 8 8 10 14 17 16 15 14 14 15 15 17 16 15 14 13 13 13 13 13 13 14 13 12 11 10 10 9 9 9 9 10 10 10 10 9 9 9 10 10 9 8 6 6 6 6 7 7 6 5 6 6 6 7 7 7 7 8 8 8 7 7 6 7 8
9 8 8 9 9 9 9 9 10 10 10 11 13 15 14 12 11 12 13 14 14 14 13 13 11 11 11 10 10 8 8 10 9 9 11 13 14 13 13 12 11 12 12 13 14 15 15 15 15 14 13 13 12 12 11 11 11 10 9 9 9 10 10 11 11 10 10 10 10 9 9 8 7 6 6 5 4 4 5 6 6 8 9 8 9 10 7 7 8 8 8 8 7 6 6 7 10
8 8 7 9 11 10 12 13 11 10 9 11 14 16 19 20 18 17 15 13 14 15 13 14 14 13 12 11 11 10 9 10 10 10 10 11 14 14 14 14 13 12 11 11 12 13 13 11 11 11 11 11 10 11 10 10 10 10 11 11 11 11 11 11 10 9 9 9 8 7 6 6 6 6 5 5 5 5 5 5 7 9 9 10 10 7 6 8 8 6 5 5 5 5 7 8 10
7 8 9 12 12 8 11 14 12 11 9 8 9 12 16 18 20 19 16 14 12 12 12 12 13 12 12 11 10 11 9 7 8 8 8 8 9 11 12 14 13 12 11 11 11 10 10 9 8 9 9 9 9 10 10 10 10 11 11 11 10 10 10 9 8 8 8 7 6 6 6 6 5 6 6 7 6 6 5 4 5 6 6 7 6 4 5 7 6 7 11 11 9 8 7 7 8
9 10 9 10 10 7 8 8 9 11 9 6 6 11 9 1 8 12 11 17 16 14 14 11 12 12 13 14 13 13 12 10 9 7 8 8 9 10 9 9 10 12 12 11 11 10 11 11 10 9 8 8 8 8 9 8 8 8 7 7 7 7 6 6 7 7 6 6 6 6 7 6 6 7 7 6 6 5 5 4 4 5 6 8 7 7 8 11 18 20 16 8 2 3 6 8 9
12 13 9 6 6 7 7 5 6 6 7 6 3 12 9 -10 -5 5 5 12 14 18 22 17 14 13 14 17 15 14 14 14 13 12 11 9 9 11 10 10 9 9 10 11 11 10 9 9 9 9 8 7 7 7 7 7 6 6 6 6 6 6 7 7 7 7 6 7 7 6 6 6 6 5 5 5 5 4 4 4 5 6 7 9 10 12 14 14 12 4 -1 2 6 12 12 9 9
9 11 9 4 3 4 4 5 4 2 5 6 2 12 14 -4 -4 5 1 4 9 13 20 21 18 13 12 16 16 15 13 12 13 14 13 13 13 13 12 12 11 9 10 11 11 11 10 10 9 9 9 8 8 7 7 6 6 7 7 7 7 7 7 6 6 6 6 6 5 4 3 3 3 3 4 5 5 5 5 5 5 6 10 15 16 17 14 6 2 4 10 17 16 10 3 2 7
4 6 5 3 3 3 3 3 1 2 3 2 4 11 12 3 5 8 -0 4 14 13 13 15 15 13 10 11 12 13 13 13 13 13 14 15 14 14 14 14 15 15 13 11 11 10 9 9 9 9 9 9 8 8 7 7 7 6 6 6 5 6 5 5 6 5 5 4 3 3 2 3 4 5 5 5 6 7 6 7 9 11 14 15 11 7 7 9 14 18 13 5 -3 -7 -2 6 8
3 4 3 2 2 1 3 1 -0 4 -1 -0 10 11 6 1 3 6 0 4 12 11 9 8 9 14 14 11 11 13 13 14 15 15 15 15 15 16 16 14 13 13 12 11 9 8 7 7 7 6 6 6 6 6 7 6 6 5 5 5 5 5 5 4 4 4 4 3 4 5 5 6 7 7 7 8 8 8 8 9 9 9 12 13 8 7 10 9 6 2 -5 -8 -5 1 7 7 2
4 4 2 3 3 3 4 2 4 5 -6 1 13 11 5 1 2 8 4 4 9 7 7 10 12 15 14 12 12 12 14 17 19 17 16 17 18 17 16 13 11 12 12 13 12 12 11 10 9 9 9 8 7 7 7 6 6 5 5 6 6 5 5 5 5 5 6 6 7 8 8 8 8 8 9 9 9 10 10 10 10 14 18 17 14 12 11 6 1 2 3 4 6 7 4 -1 -1
5 4 4 5 4 6 6 3 9 6 -3 5 10 5 4 -1 1 8 7 10 14 8 10 16 16 14 11 12 13 14 18 20 19 20 22 21 16 12 12 13 15 17 17 17 18 17 15 15 15 14 15 16 15 15 14 13 13 11 10 9 8 8 7 7 7 7 8 9 10 9 9 9 9 10 10 10 11 11 10 10 15 20 18 14 12 10 9 8 8 8 7 7 5 2 -0 1 6
6 6 6 8 7 8 7 5 8 4 2 7 5 2 0 -5 -1 9 11 12 11 10 14 17 17 15 11 11 14 17 20 19 16 17 20 17 8 5 7 9 11 14 15 15 16 18 19 18 16 16 17 18 18 18 17 16 15 14 14 14 13 14 14 13 13 12 11 11 12 12 12 12 12 12 11 11 12 10 10 10 10 10 9 9 11 10 10 10 9 7 7 7 5 4 6 9 10
7 7 9 11 11 13 10 6 4 3 5 7 5 4 0 -2 4 8 7 3 4 13 16 14 16 15 12 10 12 13 13 13 12 12 14 14 10 6 3 2 1 3 7 6 5 9 12 11 10 15 15 11 11 11 11 11 12 12 13 14 14 14 15 14 14 14 12 12 11 12 13 13 13 13 12 12 12 11 12 11 11 14 14 11 10 10 10 9 8 6 6 7 8 9 10 10 9
5 7 10 9 10 15 14 10 7 9 11 7 3 4 2 4 9 9 5 4 11 19 15 13 16 13 11 13 12 10 7 9 10 10 12 12 11 10 6 4 1 1 3 1 -2 2 6 4 4 10 8 2 4 8 10 10 10 12 11 12 12 11 11 12 11 11 11 11 10 10 10 10 10 11 11 11 11 11 12 13 17 19 13 8 9 11 9 7 6 6 7 9 10 10 9 9 10
6 7 7 6 9 11 9 9 10 14 17 8 3 4 4 8 10 8 9 13 21 21 14 12 11 8 11 14 13 10 7 7 6 4 4 3 5 8 7 4 2 1 3 5 7 9 9 5 3 7 5 1 2 7 11 12 10 10 10 10 11 11 11 11 11 11 10 10 10 9 8 8 8 9 9 9 10 10 10 11 14 12 8 9 13 13 12 12 12 11 11 12 11 11 11 10 10
6 5 6 8 10 5 3 7 11 16 16 12 10 7 5 9 8 6 10 16 16 11 6 6 6 7 7 7 8 8 7 7 6 6 9 11 12 13 13 11 9 8 8 7 5 3 5 5 1 4 6 5 7 11 15 17 14 12 11 10 10 10 10 9 9 9 8 8 9 9 9 9 9 9 9 10 10 11 12 12 11 10 10 13 13 12 13 13 12 11 11 12 12 12 11 10 10
7 7 6 6 5 4 8 11 10 9 6 9 15 14 12 11 7 7 11 11 6 4 6 8 9 9 5 5 9 11 12 14 13 11 11 14 16 14 12 10 8 7 3 2 3 7 13 11 0 -3 2 6 8 10 13 14 10 7 7 8 9 9 9 10 10 11 10 11 11 13 14 14 14 14 13 12 12 12 12 12 12 12 12 11 11 12 13 12 11 12 12 12 12 12 10 10 10
9 8 6 6 8 10 11 10 9 10 11 12 12 9 9 9 11 14 12 9 9 9 11 13 13 13 11 12 13 12 13 15 12 8 9 13 15 14 11 9 8 8 6 9 12 13 15 10 -1 -5 1 6 6 6 8 6 3 3 5 8 10 11 14 17 19 20 19 18 18 18 18 19 19 18 17 16 16 15 14 13 13 13 12 12 12 13 13 12 12 11 12 11 9 9 9 10 10
8 6 6 9 10 10 11 10 10 12 12 9 6 5 4 4 11 14 12 17 17 10 12 16 17 17 15 12 10 8 8 8 6 5 10 15 13 13 16 15 13 12 12 13 11 10 12 5 -1 1 3 5 6 5 6 5 5 4 4 7 7 9 18 24 24 22 20 18 18 17 17 17 17 17 17 17 16 15 15 15 14 13 13 13 12 12 12 10 9 9 9 8 7 7 7 9 10
6 6 8 10 11 12 14 9 4 5 6 2 4 5 -1 1 11 14 15 20 14 8 14 16 13 12 11 9 7 5 4 7 11 10 11 11 9 10 12 8 5 6 8 10 8 10 10 3 2 5 2 3 5 1 -2 3 5 1 2 7 6 11 23 24 17 15 15 14 14 13 12 11 11 11 11 11 10 10 10 9 9 9 9 9 8 8 8 7 6 6 7 7 8 7 7 8 8
8 8 8 10 11 9 9 5 2 5 5 -0 5 5 -5 5 21 19 16 17 12 12 15 13 11 8 5 7 6 7 11 15 18 17 10 8 12 16 17 16 15 16 18 17 13 10 9 7 5 2 2 7 3 -9 -9 2 4 2 7 13 13 19 25 19 11 10 11 10 10 10 9 9 9 8 7 7 6 6 6 5 5 6 6 6 6 6 6 5 5 6 7 7 7 6 6 7 7
5 2 6 11 11 7 7 7 4 7 6 3 10 9 -0 12 25 16 12 14 9 8 10 11 9 3 3 11 10 11 15 15 16 14 5 6 15 16 15 18 17 13 11 10 8 6 5 6 4 2 7 4 -12 -16 -2 8 8 9 16 20 21 24 22 14 9 9 9 8 8 7 7 6 6 7 7 7 7 7 7 7 6 6 6 5 5 5 4 4 4 4 4 4 4 4 5 5 4
Height
5850 5851 5851 5851 5852 5851 5851 5851 5850 5850 5850 5851 5852 5852 5853 5853 5851 5849 5850 5851 5851 5851 5852 5852 5852 5852 5851 5851 5851 5850 5850 5849 5849 5848 5847 5848 5847 5846 5846 5846 5846 5846 5846 5846 5846 5845 5845 5845 5845 5844 5844 5844 5844 5844 5843 5843 5843 5843 5843 5843 5842 5842 5841 5841 5841 5841 5841 5842 5841 5841 5841 5841 5841 5841 5841 5842 5842 5835 5828 5827 5827 5828 5829 5827 5826 5826 5827 5828 5828 5829 5831 5831 5831 5831 5830 5831 5832
5847 5848 5848 5848 5849 5849 5849 5848 5847 5847 5847 5848 5849 5850 5850 5849 5847 5847 5848 5848 5848 5848 5849 5849 5848 5848 5848 5848 5848 5847 5846 5846 5846 5846 5845 5845 5844 5844 5844 5844 5843 5843 5843 5843 5843 5843 5842 5842 5842 5842 5841 5841 5841 5841 5841 5841 5840 5840 5840 5840 5840 5839 5839 5838 5839 5839 5839 5839 5839 5839 5838 5838 5838 5838 5839 5839 5838 5836 5831 5828 5828 5827 5827 5826 5823 5823 5824 5825 5826 5826 5827 5828 5827 5828 5828 5828 5828
5845 5845 5845 5845 5846 5846 5846 5845 5845 5845 5845 5845 5847 5847 5846 5845 5844 5844 5844 5845 5845 5846 5845 5845 5844 5844 5844 5844 5844 5843 5843 5843 5843 5843 5843 5842 5841 5841 5841 5841 5840 5840 5840 5840 5840 5840 5839 5839 5839 5839 5839 5839 5839 5838 5838 5838 5838 5838 5837 5837 5837 5836 5836 5836 5836 5836 5836 5836 5836 5836 5836 5835 5835 5835 5836 5835 5834 5834 5832 5830 5829 5827 5827 5824 5821 5821 5822 5823 5824 5824 5824 5825 5825 5825 5825 5825 5826
5842 5842 5842 5842 5842 5843 5842 5843 5842 5842 5842 5843 5844 5843 5842 5842 5842 5841 5842 5842 5843 5843 5842 5841 5841 5841 5842 5841 5841 5840 5840 5840 5840 5839 5839 5839 5839 5838 5838 5837 5837 5837 5837 5837 5837 5837 5836 5836 5836 5836 5836 5836 5836 5836 5836 5835 5835 5835 5835 5834 5834 5834 5834 5834 5833 5833 5833 5833 5833 5833 5832 5832 5832 5832 5832 5831 5830 5830 5829 5829 5828 5826 5826 5823 5821 5822 5821 5821 5822 5822 5822 5822 5822 5822 5823 5823 5823
5839 5839 5839 5839 5839 5840 5840 5840 5840 5840 5841 5840 5840 5840 5839 5839 5839 5839 5839 5839 5839 5839 5839 5839 5839 5839 5838 5838 5838 5837 5837 5837 5836 5836 5835 5836 5836 5835 5835 5834 5834 5834 5834 5834 5834 5834 5834 5833 5833 5833 5833 5833 5833 5833 5833 5833 5833 5832 5832 5832 5832 5832 5832 5831 5831 5830 5830 5830 5830 5829 5829 5829 5829 5829 5829 5827 5826 5826 5826 5826 5825 5824 5823 5822 5821 5822 5820 5818 5820 5820 5819 5819 5820 5820 5820 5821 5821
5837 5837 5836 5836 5836 5837 5837 5837 5837 5838 5838 5837 5837 5837 5836 5836 5835 5836 5836 5836 5836 5836 5836 5836 5836 5835 5835 5835 5835 5834 5834 5833 5833 5832 5832 5832 5832 5832 5832 5831 5831 5831 5831 5830 5831 5831 5831 5831 5831 5831 5831 5830 5831 5831 5831 5830 5830 5830 5829 5829 5829 5829 5829 5829 5828 5828 5827 5827 5827 5826 5826 5826 5825 5825 5825 5824 5823 5823 5822 5822 5821 5820 5820 5820 5819 5819 5818 5816 5817 5817 5817 5816 5817 5817 5817 5817 5817
5834 5834 5834 5833 5834 5834 5834 5834 5834 5835 5834 5833 5834 5833 5832 5832 5832 5833 5833 5833 5833 5832 5832 5832 5832 5832 5832 5832 5832 5831 5830 5830 5829 5829 5829 5829 5829 5829 5828 5828 5828 5828 5828 5828 5828 5828 5828 5828 5828 5828 5828 5828 5828 5828 5828 5828 5827 5827 5827 5827 5826 5826 5826 5826 5825 5825 5825 5824 5824 5824 5823 5823 5822 5822 5821 5821 5820 5820 5819 5819 5819 5818 5818 5817 5816 5816 5815 5814 5814 5813 5813 5812 5814 5814 5814 5814 5814
5831 5831 5831 5831 5831 5831 5831 5832 5832 5832 5831 5830 5830 5830 5829 5830 5830 5830 5830 5830 5830 5829 5829 5829 5829 5829 5829 5829 5828 5828 5826 5826 5826 5826 5826 5826 5825 5825 5825 5825 5825 5825 5825 5825 5825 5825 5825 5825 5825 5825 5825 5826 5826 5826 5826 5826 5825 5825 5824 5824 5824 5824 5823 5823 5822 5822 5822 5821 5821 5821 5820 5820 5819 5818 5818 5817 5817 5817 5817 5817 5816 5816 5815 5814 5814 5813 5812 5811 5811 5810 5809 5809 5810 5811 5810 5810 5810
5829 5828 5828 5828 5828 5829 5829 5829 5829 5829 5828 5828 5827 5827 5827 5827 5827 5827 5827 5827 5826 5826 5826 5826 5826 5825 5826 5825 5824 5824 5823 5822 5823 5823 5823 5822 5822 5822 5822 5822 5822 5822 5822 5822 5822 5822 5822 5823 5823 5823 5823 5823 5823 5823 5823 5823 5823 5823 5822 5822 5822 5821 5821 5820 5819 5819 5819 5818 5818 5818 5817 5816 5816 5815 5814 5814 5813 5813 5813 5813 5813 5812 5812 5811 5810 5810 5808 5808 5807 5806 5806 5806 5806 5806 5805 5805 5805
5826 5826 5826 5826 5826 5826 5826 5827 5827 5826 5825 5825 5826 5825 5824 5824 5824 5824 5825 5824 5824 5823 5823 5822 5822 5822 5822 5822 5821 5820 5819 5819 5819 5819 5819 5819 5819 5819 5819 5819 5820 5820 5820 5820 5820 5820 5820 5820 5820 5820 5820 5820 5820 5820 5820 5820 5821 5820 5820 5820 5819 5819 5818 5818 5817 5816 5816 5815 5815 5814 5814 5813 5813 5812 5811 5810 5810 5810 5809 5809 5809 5808 5807 5807 5806 5806 5805 5804 5803 5802 5802 5802 5801 5801 5800 5800 5800
5823 5823 5823 5823 5824 5824 5824 5824 5824 5824 5823 5823 5823 5822 5821 5822 5822 5822 5822 5822 5821 5820 5820 5819 5819 5819 5819 5818 5817 5817 5816 5816 5816 5816 5816 5816 5816 5816 5816 5816 5817 5817 5817 5817 5817 5817 5817 5818 5818 5818 5818 5818 5818 5817 5817 5817 5817 5817 5817 5817 5816 5816 5815 5814 5814 5813 5813 5812 5812 5811 5811 5810 5809 5809 5808 5807 5806 5806 5805 5804 5804 5804 5803 5802 5802 5801 5801 5800 5799 5798 5797 5797 5797 5797 5796 5795 5795
5821 5821 5821 5821 5821 5821 5821 5822 5822 5821 5820 5820 5820 5819 5819 5819 5819 5819 5819 5819 5818 5817 5816 5815 5815 5815 5815 5815 5814 5813 5813 5812 5812 5812 5813 5813 5813 5813 5813 5813 5814 5814 5814 5814 5814 5815 5815 5815 5815 5815 5815 5815 5815 5814 5814 5814 5814 5814 5814 5813 5813 5813 5812 5811 5811 5810 5809 5809 5809 5808 5807 5807 5806 5806 5805 5804 5803 5802 5801 5801 5800 5800 5799 5798 5798 5797 5796 5795 5795 5794 5793 5793 5792 5792 5791 5791 5790
5818 5818 5818 5818 5819 5819 5819 5819 5819 5818 5818 5817 5817 5816 5816 5817 5817 5817 5816 5815 5815 5813 5812 5812 5812 5812 5812 5812 5811 5810 5809 5809 5809 5810 5810 5810 5810 5810 5810 5810 5811 5811 5811 5811 5812 5812 5812 5812 5812 5812 5812 5812 5812 5812 5811 5811 5811 5811 5810 5810 5810 5810 5809 5809 5808 5808 5807 5806 5805 5805 5804 5804 5803 5803 5802 5801 5800 5799 5798 5797 5797 5796 5795 5794 5793 5792 5792 5791 5790 5790 5789 5788 5788 5787 5787 5786 5786
5816 5815 5815 5816 5816 5817 5816 5816 5816 5816 5816 5814 5813 5814 5814 5815 5815 5814 5813 5812 5811 5810 5810 5810 5809 5809 5809 5808 5807 5807 5806 5806 5806 5807 5807 5807 5807 5807 5807 5808 5808 5808 5808 5809 5809 5809 5809 5809 5809 5809 5808 5808 5808 5808 5808 5808 5808 5808 5807 5807 5807 5806 5806 5806 5805 5805 5804 5804 5803 5802 5801 5800 5800 5799 5798 5798 5797 5796 5795 5794 5793 5792 5792 5791 5790 5789 5788 5787 5786 5785 5785 5784 5783 5783 5783 5782 5781
5813 5813 5812 5813 5814 5814 5813 5813 5813 5813 5813 5812 5811 5811 5811 5812 5812 5811 5810 5809 5809 5808 5807 5807 5806 5805 5805 5805 5804 5804 5803 5803 5803 5803 5804 5804 5804 5804 5805 5805 5805 5805 5805 5806 5806 5806 5806 5806 5805 5805 5805 5805 5805 5805 5805 5804 5804 5804 5804 5803 5803 5803 5802 5802 5802 5801 5801 5800 5800 5799 5798 5797 5796 5796 5795 5794 5793 5792 5791 5790 5789 5788 5787 5787 5786 5785 5784 5783 5781 5781 5780 5779 5779 5778 5778 5777 5777
5810 5810 5810 5810 5811 5811 5810 5810 5810 5809 5810 5809 5809 5809 5808 5808 5808 5808 5807 5806 5806 5805 5804 5803 5803 5802 5802 5801 5801 5800 5800 5800 5800 5800 5801 5801 5801 5801 5802 5802 5802 5802 5803 5803 5803 5803 5803 5802 5802 5802 5802 5801 5802 5801 5801 5801 5801 5801 5800 5800 5799 5799 5798 5798 5798 5797 5797 5796 5796 5795 5794 5793 5793 5792 5791 5790 5789 5788 5787 5786 5784 5783 5783 5782 5781 5780 5779 5778 5777 5776 5775 5775 5774 5774 5774 5773 5772
5807 5807 5807 5807 5808 5808 5807 5807 5806 5806 5807 5807 5806 5806 5806 5805 5805 5804 5803 5804 5803 5802 5801 5800 5799 5799 5798 5797 5797 5797 5796 5796 5797 5797 5797 5798 5798 5798 5799 5799 5799 5799 5800 5800 5799 5799 5799 5799 5799 5799 5798 5798 5798 5798 5797 5797 5797 5797 5796 5796 5795 5795 5794 5794 5793 5793 5792 5792 5791 5790 5789 5788 5788 5787 5786 5786 5785 5783 5782 5781 5780 5779 5778 5777 5776 5775 5774 5773 5773 5772 5771 5770 5770 5770 5769 5768 5767
5804 5804 5804 5804 5805 5804 5804 5803 5803 5804 5804 5803 5803 5803 5802 5802 5801 5801 5801 5800 5800 5799 5798 5796 5796 5795 5794 5794 5793 5793 5793 5793 5794 5794 5794 5794 5795 5795 5796 5796 5796 5796 5796 5796 5796 5796 5796 5796 5796 5795 5795 5794 5794 5794 5793 5793 5792 5792 5792 5792 5791 5791 5790 5790 5789 5789 5788 5787 5787 5786 5785 5784 5783 5782 5781 5780 5779 5778 5777 5776 5776 5774 5773 5772 5771 5770 5770 5769 5768 5767 5766 5766 5765 5765 5764 5763 5762
5801 5801 5801 5801 5802 5801 5800 5800 5800 5800 5800 5800 5799 5799 5798 5798 5798 5798 5798 5797 5796 5797 5795 5793 5793 5792 5791 5790 5790 5790 5790 5790 5790 5790 5791 5791 5792 5792 5792 5793 5793 5793 5792 5792 5792 5792 5793 5792 5792 5791 5791 5791 5790 5789 5789 5788 5788 5788 5787 5787 5787 5786 5786 5785 5785 5784 5784 5783 5782 5781 5780 5779 5779 5778 5777 5776 5775 5774 5773 5772 5771 5770 5769 5768 5767 5766 5766 5765 5763 5763 5762 5761 5760 5760 5759 5758 5758
5798 5798 5799 5799 5798 5797 5796 5796 5797 5797 5797 5796 5795 5795 5794 5794 5794 5795 5795 5794 5794 5793 5791 5789 5789 5789 5788 5787 5787 5787 5787 5787 5787 5787 5787 5787 5788 5788 5789 5789 5789 5789 5789 5789 5789 5789 5788 5788 5788 5788 5787 5787 5786 5785 5785 5784 5784 5783 5783 5782 5782 5782 5781 5781 5780 5779 5779 5778 5778 5777 5776 5775 5774 5773 5772 5771 5770 5769 5768 5767 5767 5766 5764 5764 5763 5762 5761 5760 5759 5758 5758 5757 5756 5755 5755 5754 5753
5795 5795 5796 5796 5795 5794 5793 5793 5794 5794 5793 5792 5791 5791 5791 5791 5791 5791 5791 5791 5791 5790 5787 5785 5786 5786 5786 5785 5784 5784 5784 5784 5783 5783 5783 5783 5784 5784 5784 5785 5785 5785 5785 5785 5784 5784 5784 5784 5784 5783 5783 5783 5782 5781 5781 5780 5780 5779 5779 5778 5778 5777 5776 5776 5775 5775 5774 5773 5773 5772 5771 5771 5770 5769 5768 5767 5766 5765 5764 5763 5762 5761 5760 5759 5758 5757 5756 5756 5755 5754 5753 5752 5752 5751 5750 5750 5748
5793 5793 5793 5793 5791 5791 5790 5790 5790 5790 5790 5789 5788 5787 5787 5788 5788 5788 5787 5787 5788 5785 5783 5782 5782 5782 5782 5781 5780 5781 5780 5780 5779 5779 5779 5779 5780 5780 5780 5780 5780 5780 5780 5780 5779 5780 5780 5779 5779 5779 5779 5778 5777 5777 5777 5776 5776 5775 5775 5774 5774 5773 5772 5771 5771 5770 5770 5769 5768 5767 5767 5766 5765 5765 5764 5763 5762 5761 5760 5758 5758 5757 5755 5754 5753 5752 5751 5751 5750 5749 5748 5748 5747 5746 5746 5745 5744
5790 5790 5790 5790 5789 5788 5787 5787 5787 5787 5787 5786 5785 5784 5784 5783 5784 5784 5783 5783 5784 5781 5780 5780 5778 5778 5778 5778 5778 5777 5777 5776 5776 5775 5775 5775 5775 5775 5774 5774 5775 5775 5775 5775 5774 5775 5775 5775 5774 5774 5774 5774 5773 5773 5772 5772 5771 5771 5771 5770 5769 5768 5768 5767 5767 5766 5765 5764 5764 5763 5762 5761 5760 5759 5759 5758 5757 5756 5755 5754 5753 5752 5750 5749 5748 5747 5746 5745 5745 5744 5744 5743 5742 5741 5741 5740 5739
5788 5788 5787 5786 5786 5785 5784 5784 5784 5784 5784 5784 5782 5781 5781 5779 5779 5779 5779 5780 5780 5777 5777 5776 5775 5775 5775 5775 5775 5774 5773 5773 5772 5771 5771 5771 5771 5770 5769 5770 5770 5770 5770 5769 5769 5770 5770 5770 5770 5769 5769 5769 5768 5768 5767 5767 5767 5766 5766 5765 5765 5764 5763 5762 5762 5761 5760 5760 5759 5759 5758 5757 5756 5755 5754 5753 5752 5751 5750 5749 5748 5747 5745 5744 5743 5742 5741 5740 5740 5739 5739 5738 5737 5737 5736 5735 5734
5784 5784 5784 5784 5783 5782 5781 5780 5780 5780 5780 5780 5779 5779 5778 5777 5775 5775 5777 5777 5775 5773 5773 5773 5771 5771 5771 5770 5770 5770 5770 5769 5768 5767 5767 5766 5765 5765 5766 5765 5764 5764 5764 5763 5764 5765 5765 5764 5764 5764 5764 5763 5763 5763 5762 5762 5762 5761 5761 5760 5759 5759 5758 5757 5757 5756 5755 5754 5754 5753 5753 5752 5751 5750 5749 5748 5747 5746 5745 5744 5743 5741 5740 5739 5738 5737 5736 5735 5735 5734 5733 5733 5732 5731 5731 5730 5730
5780 5780 5780 5781 5780 5779 5778 5777 5777 5775 5775 5774 5774 5776 5776 5774 5770 5772 5775 5772 5770 5770 5769 5768 5767 5767 5767 5765 5765 5765 5766 5765 5764 5763 5762 5761 5760 5761 5761 5760 5759 5759 5758 5759 5759 5759 5758 5759 5759 5758 5758 5758 5758 5758 5757 5757 5756 5756 5755 5754 5754 5753 5753 5752 5752 5750 5750 5749 5748 5747 5747 5745 5745 5744 5743 5742 5741 5740 5739 5738 5737 5736 5734 5733 5732 5731 5731 5730 5730 5729 5728 5727 5726 5726 5725 5725 5725
5777 5776 5776 5777 5776 5775 5774 5774 5773 5770 5770 5770 5770 5772 5773 5770 5767 5769 5770 5765 5764 5765 5765 5764 5763 5763 5762 5761 5760 5759 5760 5760 5759 5759 5759 5757 5756 5755 5755 5755 5755 5754 5753 5754 5753 5753 5753 5753 5753 5752 5752 5752 5752 5753 5752 5751 5751 5750 5749 5749 5749 5748 5747 5746 5746 5745 5744 5743 5743 5742 5741 5739 5738 5738 5737 5736 5735 5734 5733 5732 5731 5730 5729 5728 5727 5726 5725 5725 5725 5724 5723 5722 5721 5720 5720 5720 5719
5774 5773 5773 5773 5772 5772 5771 5770 5769 5766 5767 5767 5765 5766 5768 5766 5765 5766 5763 5759 5759 5760 5760 5759 5758 5758 5756 5755 5755 5755 5754 5753 5753 5754 5755 5753 5752 5750 5750 5751 5750 5749 5749 5748 5747 5747 5748 5747 5746 5746 5746 5746 5747 5747 5746 5745 5745 5744 5743 5743 5742 5741 5741 5741 5740 5739 5737 5737 5737 5736 5735 5733 5732 5731 5730 5730 5729 5728 5726 5726 5725 5724 5723 5722 5721 5720 5720 5719 5719 5718 5717 5716 5716 5715 5714 5714 5714
5771 5769 5768 5769 5769 5769 5768 5766 5764 5763 5763 5763 5760 5759 5762 5763 5762 5762 5757 5755 5754 5754 5754 5753 5752 5752 5750 5750 5750 5749 5749 5748 5747 5749 5749 5748 5747 5746 5746 5746 5745 5744 5743 5741 5741 5742 5741 5741 5740 5740 5740 5741 5741 5740 5740 5740 5739 5738 5737 5736 5736 5735 5734 5734 5734 5733 5731 5730 5730 5730 5728 5727 5725 5724 5724 5723 5722 5721 5720 5720 5719 5718 5717 5717 5716 5715 5714 5713 5713 5712 5711 5711 5710 5709 5709 5709 5709
5768 5765 5763 5765 5766 5767 5766 5763 5761 5761 5760 5758 5754 5750 5756 5760 5757 5756 5754 5751 5750 5749 5749 5747 5746 5746 5745 5744 5744 5744 5744 5742 5743 5743 5742 5742 5741 5740 5740 5739 5738 5738 5736 5735 5736 5735 5735 5735 5735 5735 5735 5735 5734 5734 5734 5733 5733 5732 5731 5730 5729 5728 5728 5727 5727 5726 5725 5724 5723 5722 5722 5721 5719 5718 5717 5717 5716 5715 5714 5713 5713 5712 5712 5711 5710 5709 5708 5707 5707 5706 5705 5705 5704 5703 5703 5703 5703
5764 5761 5761 5761 5760 5763 5764 5760 5759 5758 5756 5754 5749 5743 5749 5754 5751 5751 5750 5747 5746 5745 5744 5742 5741 5741 5739 5739 5738 5738 5738 5737 5737 5737 5736 5735 5734 5733 5733 5731 5731 5731 5730 5729 5729 5728 5729 5730 5730 5730 5729 5728 5728 5727 5727 5727 5726 5726 5725 5723 5722 5721 5721 5721 5720 5719 5718 5717 5716 5715 5714 5714 5713 5712 5711 5711 5710 5710 5709 5708 5706 5706 5705 5705 5704 5703 5702 5701 5700 5700 5699 5699 5698 5698 5697 5697 5697
5760 5757 5759 5758 5755 5757 5759 5758 5756 5754 5751 5749 5744 5738 5742 5748 5746 5746 5745 5743 5742 5740 5739 5737 5736 5736 5734 5733 5732 5732 5732 5731 5731 5731 5730 5728 5726 5725 5725 5724 5724 5724 5724 5723 5722 5722 5723 5723 5723 5723 5722 5721 5721 5720 5721 5720 5719 5718 5717 5716 5715 5715 5714 5714 5713 5711 5711 5710 5709 5708 5707 5706 5706 5706 5705 5704 5704 5703 5703 5702 5701 5700 5699 5698 5698 5697 5696 5695 5694 5693 5693 5693 5692 5692 5691 5690 5690
5757 5753 5753 5754 5752 5751 5754 5755 5752 5748 5745 5742 5739 5733 5736 5743 5742 5739 5739 5738 5737 5736 5735 5733 5731 5730 5729 5727 5726 5725 5725 5724 5724 5724 5723 5720 5718 5718 5718 5717 5717 5717 5717 5717 5717 5716 5716 5715 5716 5716 5715 5714 5714 5714 5714 5713 5712 5711 5710 5709 5709 5708 5707 5707 5705 5704 5703 5703 5702 5701 5700 5699 5699 5699 5699 5698 5697 5696 5696 5695 5695 5694 5693 5692 5691 5690 5690 5689 5688 5687 5687 5686 5686 5685 5684 5683 5683
5753 5750 5748 5749 5748 5747 5749 5750 5747 5743 5739 5736 5734 5729 5730 5738 5737 5734 5733 5732 5730 5730 5729 5728 5726 5725 5723 5721 5720 5719 5719 5718 5719 5718 5715 5712 5711 5711 5710 5710 5710 5710 5711 5711 5710 5709 5709 5708 5708 5708 5707 5707 5707 5707 5706 5705 5704 5703 5703 5703 5702 5702 5700 5699 5698 5697 5695 5695 5695 5695 5694 5693 5692 5692 5692 5691 5691 5690 5689 5688 5687 5687 5686 5685 5684 5684 5683 5682 5682 5681 5680 5679 5678 5678 5678 5677 5676
5748 5747 5744 5744 5744 5743 5744 5744 5742 5739 5733 5730 5729 5725 5725 5730 5731 5729 5728 5725 5723 5723 5723 5722 5721 5719 5717 5715 5714 5714 5712 5713 5714 5711 5707 5706 5704 5703 5702 5703 5703 5703 5704 5703 5703 5703 5702 5701 5701 5701 5700 5699 5699 5699 5699 5698 5697 5696 5696 5695 5695 5694 5693 5692 5691 5690 5688 5687 5687 5688 5687 5687 5686 5685 5685 5684 5684 5683 5682 5681 5680 5679 5679 5679 5678 5677 5677 5676 5675 5674 5673 5672 5671 5671 5671 5670 5670
5742 5742 5740 5739 5739 5739 5740 5738 5736 5734 5726 5723 5724 5720 5718 5721 5724 5724 5722 5720 5718 5717 5716 5715 5714 5712 5710 5709 5708 5707 5706 5707 5708 5704 5700 5699 5698 5696 5695 5695 5695 5696 5696 5696 5696 5696 5695 5694 5694 5693 5692 5691 5691 5691 5691 5690 5690 5689 5688 5688 5687 5686 5685 5685 5684 5683 5682 5681 5681 5680 5680 5680 5680 5679 5678 5677 5676 5676 5675 5674 5673 5673 5672 5671 5671 5671 5670 5668 5667 5667 5666 5665 5665 5664 5663 5663 5663
5738 5737 5736 5735 5734 5734 5735 5733 5733 5730 5720 5717 5720 5715 5711 5713 5716 5718 5717 5715 5714 5712 5710 5709 5707 5705 5703 5702 5701 5700 5700 5700 5700 5697 5695 5694 5692 5691 5690 5689 5688 5688 5688 5689 5689 5688 5688 5687 5687 5686 5685 5684 5684 5684 5683 5683 5682 5681 5681 5680 5680 5678 5678 5678 5677 5677 5676 5675 5674 5674 5674 5673 5673 5673 5671 5670 5670 5668 5668 5667 5666 5666 5665 5664 5663 5663 5662 5661 5660 5659 5659 5658 5657 5657 5656 5655 5656
5734 5733 5732 5731 5730 5728 5728 5728 5728 5725 5716 5714 5716 5709 5706 5708 5709 5712 5712 5709 5709 5708 5705 5703 5700 5698 5695 5694 5693 5692 5692 5692 5692 5690 5689 5687 5686 5685 5684 5683 5682 5681 5681 5681 5681 5681 5681 5681 5679 5679 5678 5677 5677 5677 5676 5675 5675 5674 5673 5673 5672 5671 5671 5670 5670 5670 5669 5669 5668 5667 5667 5666 5666 5665 5664 5664 5663 5662 5661 5660 5660 5659 5658 5657 5656 5655 5655 5654 5653 5652 5651 5651 5649 5649 5648 5648 5649
5730 5729 5727 5726 5726 5723 5721 5723 5721 5717 5712 5710 5710 5702 5700 5704 5704 5707 5707 5703 5704 5702 5698 5696 5693 5691 5690 5688 5687 5685 5685 5685 5684 5683 5682 5680 5678 5678 5678 5678 5676 5675 5674 5674 5674 5674 5674 5673 5672 5671 5671 5671 5670 5670 5669 5669 5668 5667 5666 5665 5665 5664 5663 5663 5663 5662 5662 5662 5661 5660 5660 5659 5658 5657 5657 5657 5656 5656 5655 5654 5654 5653 5651 5650 5649 5648 5647 5647 5646 5645 5644 5643 5641 5641 5641 5641 5641
5726 5725 5724 5722 5721 5717 5714 5717 5714 5711 5708 5705 5703 5697 5697 5701 5700 5700 5700 5697 5698 5696 5692 5689 5687 5685 5684 5683 5681 5679 5678 5677 5676 5676 5675 5673 5672 5672 5672 5671 5670 5669 5668 5667 5667 5667 5667 5666 5666 5665 5664 5664 5663 5663 5662 5662 5661 5660 5659 5658 5657 5657 5656 5656 5656 5656 5655 5654 5654 5653 5652 5651 5650 5650 5649 5650 5650 5650 5649 5648 5647 5646 5645 5644 5642 5641 5640 5639 5638 5637 5636 5634 5634 5634 5634 5633 5633
5721 5721 5720 5716 5715 5713 5710 5709 5706 5704 5702 5699 5697 5693 5696 5698 5693 5692 5693 5692 5691 5689 5687 5685 5682 5679 5676 5676 5675 5672 5671 5670 5668 5668 5667 5666 5665 5665 5665 5664 5664 5662 5661 5660 5660 5660 5660 5660 5659 5659 5658 5657 5656 5655 5655 5654 5653 5652 5652 5651 5650 5650 5649 5649 5649 5648 5647 5647 5646 5645 5644 5644 5643 5643 5643 5642 5643 5642 5641 5641 5640 5639 5637 5636 5635 5634 5633 5632 5631 5630 5628 5627 5626 5626 5626 5626 5626
5715 5716 5715 5711 5709 5708 5706 5704 5701 5698 5695 5693 5690 5688 5693 5694 5686 5685 5685 5684 5686 5683 5680 5679 5675 5673 5670 5669 5668 5666 5664 5662 5661 5660 5659 5658 5658 5657 5658 5657 5657 5656 5655 5654 5653 5653 5653 5653 5652 5651 5651 5650 5649 5648 5647 5647 5646 5645 5644 5643 5643 5642 5642 5642 5641 5640 5640 5639 5639 5638 5637 5637 5636 5636 5635 5635 5634 5634 5633 5633 5632 5630 5629 5629 5628 5627 5625 5625 5625 5623 5621 5619 5617 5617 5617 5618 5619
5711 5711 5709 5706 5705 5703 5701 5699 5696 5694 5690 5687 5685 5683 5685 5684 5682 5683 5677 5674 5679 5676 5672 5671 5668 5666 5664 5662 5661 5659 5657 5656 5654 5653 5652 5651 5651 5650 5650 5650 5649 5649 5648 5648 5647 5647 5646 5646 5645 5644 5644 5643 5642 5641 5640 5639 5638 5637 5636 5635 5635 5634 5634 5634 5633 5632 5632 5632 5631 5631 5630 5629 5628 5627 5627 5626 5626 5625 5625 5624 5624 5623 5622 5622 5621 5620 5619 5619 5618 5616 5614 5611 5609 5609 5610 5611 5611
5705 5705 5703 5700 5700 5697 5695 5694 5691 5689 5686 5681 5681 5681 5677 5672 5675 5679 5671 5666 5669 5667 5664 5663 5660 5659 5658 5655 5654 5653 5651 5649 5648 5646 5645 5645 5644 5643 5643 5642 5642 5641 5641 5641 5641 5640 5640 5639 5638 5637 5636 5636 5635 5634 5633 5632 5631 5629 5628 5628 5627 5626 5626 5625 5625 5624 5624 5624 5623 5623 5622 5621 5620 5619 5618 5618 5617 5617 5616 5616 5615 5615 5615 5615 5614 5613 5613 5612 5610 5608 5606 5604 5602 5602 5602 5602 5602
5700 5699 5696 5695 5694 5691 5689 5687 5685 5684 5679 5675 5678 5677 5670 5665 5671 5674 5667 5662 5659 5655 5656 5654 5651 5651 5651 5648 5646 5645 5644 5643 5641 5639 5638 5637 5636 5635 5635 5635 5635 5635 5634 5634 5634 5633 5632 5632 5631 5630 5629 5628 5627 5626 5625 5624 5623 5622 5620 5620 5619 5618 5618 5618 5617 5617 5616 5615 5615 5614 5613 5613 5612 5611 5610 5610 5609 5608 5608 5608 5607 5607 5607 5607 5607 5606 5606 5604 5602 5600 5598 5597 5595 5595 5594 5594 5594
5694 5692 5690 5689 5687 5685 5683 5680 5679 5677 5673 5672 5673 5670 5660 5657 5667 5670 5664 5660 5653 5647 5648 5647 5643 5642 5642 5641 5639 5638 5636 5635 5634 5632 5631 5629 5628 5628 5627 5627 5627 5627 5627 5627 5626 5626 5625 5624 5623 5622 5622 5621 5620 5618 5617 5616 5615 5614 5612 5612 5612 5611 5610 5610 5609 5609 5607 5607 5606 5605 5605 5604 5604 5603 5602 5601 5601 5600 5599 5599 5599 5600 5599 5598 5598 5598 5596 5594 5593 5591 5589 5588 5587 5587 5587 5586 5586
5688 5686 5684 5683 5680 5679 5677 5674 5673 5669 5668 5670 5667 5662 5653 5647 5658 5665 5659 5653 5648 5642 5642 5641 5638 5635 5633 5633 5633 5632 5630 5628 5627 5626 5624 5622 5621 5621 5620 5621 5621 5620 5620 5620 5619 5618 5618 5617 5616 5615 5614 5613 5612 5610 5609 5608 5607 5606 5605 5604 5604 5604 5603 5603 5602 5600 5599 5598 5598 5597 5596 5596 5595 5594 5593 5593 5592 5591 5591 5591 5591 5591 5590 5590 5589 5587 5586 5584 5584 5583 5581 5580 5580 5580 5579 5578 5578
5682 5680 5678 5676 5673 5673 5671 5669 5667 5661 5661 5665 5661 5656 5648 5641 5649 5657 5652 5647 5642 5638 5636 5634 5632 5629 5626 5625 5625 5626 5625 5623 5622 5620 5620 5618 5615 5614 5614 5614 5614 5614 5614 5613 5612 5612 5611 5610 5609 5608 5607 5606 5605 5603 5601 5600 5599 5598 5598 5597 5597 5596 5595 5595 5594 5593 5591 5591 5589 5588 5588 5587 5586 5586 5585 5584 5584 5582 5582 5582 5582 5582 5582 5581 5579 5577 5576 5575 5575 5574 5574 5573 5573 5572 5571 5570 5569
5676 5675 5672 5668 5666 5665 5664 5662 5659 5653 5655 5659 5653 5647 5642 5639 5644 5648 5644 5641 5637 5632 5630 5628 5625 5622 5620 5620 5619 5619 5618 5617 5617 5616 5615 5614 5611 5609 5608 5608 5608 5607 5607 5606 5606 5606 5605 5604 5603 5602 5601 5599 5598 5596 5594 5593 5592 5591 5590 5589 5589 5588 5587 5587 5586 5585 5584 5583 5582 5580 5580 5579 5578 5577 5576 5576 5575 5574 5574 5573 5573 5573 5573 5571 5569 5568 5568 5567 5567 5566 5566 5566 5565 5564 5562 5561 5561
5671 5669 5666 5662 5660 5657 5654 5653 5650 5647 5650 5652 5646 5638 5634 5636 5640 5638 5634 5634 5631 5626 5624 5622 5621 5618 5615 5615 5613 5611 5611 5611 5611 5610 5609 5608 5607 5606 5604 5604 5603 5601 5601 5600 5600 5599 5599 5598 5597 5595 5594 5593 5591 5589 5587 5586 5584 5584 5583 5582 5581 5580 5579 5579 5578 5577 5576 5575 5574 5572 5571 5570 5570 5569 5568 5568 5567 5566 5566 5565 5565 5565 5564 5562 5561 5561 5560 5559 5559 5558 5558 5557 5557 5556 5554 5553 5554
5666 5664 5660 5657 5656 5650 5644 5644 5642 5640 5640 5643 5639 5631 5628 5631 5633 5630 5626 5625 5623 5620 5618 5616 5615 5613 5610 5609 5608 5606 5605 5604 5604 5604 5603 5603 5602 5601 5600 5598 5597 5596 5595 5594 5593 5592 5591 5590 5589 5588 5587 5585 5584 5582 5581 5579 5577 5576 5575 5574 5573 5572 5571 5571 5570 5569 5568 5567 5566 5564 5563 5562 5562 5560 5560 5559 5558 5558 5557 5557 5557 5557 5556 5554 5553 5553 5552 5551 5550 5549 5550 5549 5549 5548 5546 5545 5545
5661 5659 5655 5652 5650 5644 5638 5636 5636 5632 5627 5630 5632 5626 5624 5626 5626 5624 5622 5619 5616 5614 5612 5610 5609 5607 5604 5603 5602 5600 5599 5598 5597 5597 5597 5597 5596 5594 5593 5592 5591 5590 5589 5588 5586 5585 5584 5582 5580 5579 5579 5577 5576 5575 5574 5572 5570 5569 5568 5567 5565 5565 5563 5562 5562 5561 5560 5559 5557 5556 5555 5554 5553 5552 5551 5550 5550 5549 5549 5548 5548 5547 5546 5545 5545 5544 5543 5543 5542 5541 5541 5541 5540 5539 5537 5537 5536
5654 5652 5649 5645 5641 5638 5633 5628 5630 5627 5617 5618 5622 5619 5619 5620 5618 5621 5619 5611 5608 5607 5605 5604 5602 5600 5598 5596 5594 5593 5592 5592 5592 5591 5590 5589 5589 5587 5586 5585 5584 5583 5581 5580 5579 5577 5576 5575 5573 5572 5571 5570 5568 5568 5567 5565 5564 5562 5561 5560 5558 5557 5556 5554 5553 5552 5551 5550 5548 5547 5546 5545 5544 5543 5542 5542 5541 5541 5540 5539 5539 5538 5537 5536 5536 5535 5534 5534 5533 5532 5532 5532 5531 5529 5528 5529 5527
5648 5645 5643 5639 5633 5632 5630 5623 5621 5619 5610 5608 5611 5610 5610 5610 5609 5614 5613 5604 5599 5599 5598 5598 5596 5594 5592 5590 5588 5586 5586 5585 5585 5584 5582 5582 5581 5579 5578 5577 5576 5575 5574 5573 5571 5570 5569 5568 5566 5565 5563 5562 5561 5560 5559 5558 5556 5555 5553 5552 5551 5549 5548 5546 5545 5544 5542 5541 5540 5539 5538 5537 5536 5535 5534 5534 5533 5532 5532 5531 5531 5530 5529 5528 5527 5526 5525 5524 5523 5523 5523 5522 5521 5520 5519 5520 5518
5642 5639 5638 5634 5628 5626 5625 5619 5614 5611 5604 5599 5601 5602 5602 5602 5601 5601 5602 5599 5593 5590 5591 5592 5590 5588 5585 5583 5581 5580 5579 5578 5577 5575 5574 5574 5573 5571 5570 5569 5568 5567 5567 5566 5564 5563 5562 5560 5559 5558 5556 5554 5553 5552 5551 5549 5548 5547 5545 5544 5543 5541 5540 5538 5537 5535 5534 5533 5532 5531 5530 5529 5528 5527 5527 5526 5525 5524 5524 5523 5522 5521 5521 5520 5519 5518 5517 5516 5515 5515 5514 5513 5512 5510 5510 5511 5509
5636 5635 5632 5628 5623 5620 5618 5614 5610 5606 5599 5593 5592 5591 5594 5598 5595 5591 5591 5592 5586 5583 5584 5584 5582 5580 5579 5576 5574 5572 5571 5570 5569 5567 5566 5566 5565 5564 5563 5562 5561 5560 5559 5558 5557 5555 5554 5553 5551 5550 5548 5546 5545 5544 5542 5541 5540 5539 5537 5536 5534 5533 5531 5530 5528 5527 5526 5525 5524 5523 5523 5522 5521 5521 5520 5519 5518 5517 5516 5515 5514 5513 5512 5511 5510 5509 5508 5507 5506 5506 5505 5504 5503 5501 5501 5502 5500
5630 5629 5626 5622 5618 5615 5610 5606 5606 5603 5595 5589 5584 5579 5584 5593 5590 5583 5584 5582 5579 5578 5577 5576 5574 5572 5571 5569 5565 5563 5562 5561 5561 5560 5558 5558 5556 5556 5555 5553 5553 5552 5551 5550 5548 5547 5546 5545 5543 5542 5540 5539 5537 5536 5535 5534 5532 5531 5529 5527 5526 5525 5523 5522 5521 5520 5519 5518 5517 5516 5515 5514 5514 5513 5512 5512 5511 5510 5509 5508 5507 5506 5505 5503 5502 5501 5499 5498 5497 5497 5496 5495 5494 5492 5492 5493 5491
5625 5622 5620 5618 5613 5609 5603 5597 5598 5599 5591 5586 5579 5568 5574 5587 5583 5577 5577 5575 5573 5573 5570 5568 5567 5565 5564 5562 5558 5556 5555 5554 5553 5552 5551 5550 5549 5548 5546 5545 5545 5544 5543 5541 5540 5539 5538 5537 5535 5534 5532 5531 5530 5528 5527 5525 5524 5522 5521 5519 5518 5517 5515 5515 5514 5513 5512 5511 5510 5509 5508 5508 5507 5506 5505 5504 5504 5503 5502 5501 5500 5498 5497 5495 5494 5493 5491 5490 5489 5488 5487 5486 5485 5483 5483 5483 5482